Regional Weather Roundup
Issued by NWS

Home | Current Version | Previous Version | Graphics & Text | Print | Product List | Glossary On
Versions: 1 2 3 4 5 6 7 8 9 10 11 12 13 14 15 16 17 18 19 20 21 22 23 24 25 26 27 28 29 30 31 32 33 34 35 36 37 38 39 40 41 42 43 44 45 46 47 48 49 50
385
ASUS44 KJAN 021003
RWRMS

MISSISSIPPI HOURLY WEATHER ROUNDUP
NATIONAL WEATHER SERVICE JACKSON MS
500 AM CDT TUE SEP 02 2014

NOTE: "FAIR: INDICATES FEW OR NO CLOUDS BELOW 12,000 FEET WITH NO
SIGNIFICANT WEATHER AND/OR OBSTRUCTIONS TO VISIBILITY.

MSZ001>002-007>008-010>013-018>021-025>028-034>036-021100-
NORTHWEST MISSISSIPPI

CITY           SKY/WX    TMP DP  RH WIND       PRES   REMARKS
CLARKSDALE     FAIR      75  75 100 CALM      30.01R
CLEVELAND      FAIR      75  75 100 S5        29.98S
GREENWOOD      PTCLDY    75  72  90 S8        30.00S
GREENVILLE     CLEAR     75  73  93 S6        29.98S
GRENADA        FAIR      73  72  94 S3        30.01S
OLIVE BRANCH   CLEAR     73  73 100 CALM      30.03R
OXFORD         FAIR      73  72  94 CALM      30.04R
TUNICA         PTSUNNY   73  72  94 SE3       30.01R
$$

MSZ003>006-009-014>017-022>024-029>033-037>039-021100-
NORTHEAST MISSISSIPPI

CITY           SKY/WX    TMP DP  RH WIND       PRES   REMARKS
BELMONT        FAIR      73  70  91 S3        30.05S
COLUMBUS AFB   CLEAR     72  72 100 SE6       30.04S
CORINTH        FAIR      73  70  88 CALM      30.03R
GOLDN TRIANGLE CLEAR     75  70  83 SE6       30.05S
STARKVILLE     FAIR      70  70 100 CALM      30.04S
TUPELO         CLEAR     73  70  90 S3        30.03R
$$

MSZ040-058-021100-
CENTRAL MISSISSIPPI

CITY           SKY/WX    TMP DP  RH WIND       PRES   REMARKS
JACKSON INTL   MOCLDY    76  74  93 S6        30.03R
JACKSON HAWKNS PTCLDY    76  73  91 S7        30.03S
MERIDIAN KEY   CLOUDY    74  72  93 S3        30.04F
MERIDIAN NAS   CLOUDY    74  72  93 CALM      30.05S
RAYMOND        FAIR      73  68  83 SE5       30.02S
VICKSBURG      MOCLDY    76  74  93 S5        30.01R
$$

MSZ059>079-021100-
SOUTH MISSISSIPPI

CITY           SKY/WX    TMP DP  RH WIND       PRES   REMARKS
BROOKHAVEN     CLOUDY    75  75 100 CALM      30.05S FOG
HATTIESBURG    MOCLDY    76  73  91 CALM      30.04F
MCCOMB         MOCLDY    75  74  96 SE3       30.03S FOG
NATCHEZ        MOCLDY    75  72  88 S3        30.02R
PINE BELT      MOCLDY    73  70  88 CALM      30.05F
$$

MSZ080>082-021100-
COASTAL MISSISSIPPI

CITY           SKY/WX    TMP DP  RH WIND       PRES   REMARKS
BILOXI         CLEAR     80  76  86 SW2       30.02F
PASCAGOULA     CLEAR     74  73  97 CALM      30.04R FOG
GULFPORT       CLEAR     79  76  90 CALM      30.02S
$$



USA.gov is the U.S. government's official web portal to all federal, state and local government web resources and services.